Vorticity
13 12 9 7 6 6 7 6 4 4 6 7 7 3 15 4 2 18 5 9 7 11 9 8 10 8 9 7 12 9 10 7 10 9 6 8 8 9 10 5 7 8 11 10 10 14 10
11 8 5 9 9 7 7 6 7 4 7 4 6 5 8 8 7 3 18 18 3 12 8 8 10 11 13 13 11 9 10 9 10 10 8 9 7 8 8 8 4 4 4 4 8 8 10
13 9 7 7 9 10 11 12 12 10 10 8 9 6 6 3 9 8 4 6 8 10 9 6 8 9 9 16 11 12 10 9 11 11 7 5 7 8 9 8 6 4 4 5 6 7 9
14 11 7 7 6 9 10 8 7 9 5 5 5 7 7 12 6 10 5 14 20 1 12 7 8 9 9 13 13 11 11 9 9 9 6 8 8 8 8 9 7 4 3 5 6 6 6
12 12 12 10 11 11 10 7 7 5 4 -1 3 8 10 12 8 11 7 15 4 4 10 8 8 10 9 13 14 13 10 10 9 8 8 8 9 9 9 7 7 8 7 4 2 4 5
12 12 13 11 11 5 7 4 0 0 1 9 17 32 24 23 11 9 7 11 3 14 4 11 7 10 8 12 14 16 13 11 9 10 9 7 8 8 8 11 7 4 3 4 6 7 4
12 11 11 13 8 5 3 4 4 12 34 36 34 28 36 42 19 13 17 11 15 2 4 11 7 7 8 9 12 14 15 11 12 10 10 11 10 7 7 8 10 9 8 6 5 5 2
12 11 11 8 4 4 6 8 27 37 28 31 31 25 28 28 22 24 -4 3 8 5 13 7 9 6 7 7 9 12 10 10 10 11 9 7 4 8 8 8 7 6 6 4 3 2 5
13 12 8 6 4 2 11 39 31 28 27 38 39 33 35 20 30 21 6 9 4 15 10 5 11 6 5 6 7 8 7 7 7 8 7 7 4 5 5 3 2 1 2 4 3 1 0
12 12 5 4 4 6 42 37 28 29 38 34 38 30 32 21 32 18 1 6 4 27 9 13 6 11 5 6 5 5 5 6 5 5 4 3 4 3 1 2 2 4 5 2 4 5 4
11 13 5 3 3 32 38 36 27 37 48 11 20 42 27 18 44 21 -7 4 -5 7 10 13 5 8 7 4 5 5 4 4 4 4 4 3 2 2 5 6 5 5 3 4 4 5 8
11 12 5 3 4 46 29 32 35 1 -3 -8 1 14 36 20 44 22 9 9 -16 1 10 16 11 5 9 9 3 1 6 5 3 3 3 4 7 7 3 3 4 3 9 10 11 17 14
10 14 4 4 11 44 26 36 41 22 6 7 -5 15 38 27 43 -9 18 -4 -7 4 11 6 21 6 7 6 10 9 7 6 5 6 8 4 4 3 7 8 7 8 11 14 13 1 8
9 13 4 5 28 37 33 34 33 16 -10 20 27 30 39 43 28 -22 6 8 -7 13 7 9 8 21 3 4 6 8 8 9 7 5 3 2 4 6 4 6 6 11 10 0 9 3 4
8 13 4 6 40 31 38 41 32 -0 -5 8 15 30 40 45 22 -38 18 -16 14 12 -6 21 7 9 17 9 -1 3 6 6 4 2 3 9 8 7 9 4 14 7 4 4 11 2 7
8 13 4 7 53 25 40 37 35 13 20 12 12 53 35 36 35 6 -2 5 10 4 1 15 8 6 12 25 9 4 6 9 11 12 8 6 7 6 6 16 12 2 2 17 20 15 17
8 13 5 11 54 27 49 36 25 13 8 -7 23 28 52 -13 8 11 -5 11 11 15 -6 13 13 2 5 8 11 11 15 10 7 6 7 7 2 15 15 12 6 8 24 20 14 21 13
8 13 6 16 59 13 57 16 6 3 18 9 31 44 46 -10 -18 -4 4 19 16 9 6 26 12 4 3 1 1 0 7 8 3 5 2 14 22 10 11 3 10 13 5 2 4 22 29
7 12 7 19 67 -3 26 27 11 17 31 22 36 51 19 6 9 0 17 -2 16 5 10 14 16 1 5 7 6 8 4 5 6 5 18 15 12 7 15 10 7 13 8 9 1 20 14
6 10 8 14 74 7 14 33 -2 16 12 20 32 51 9 -7 6 19 7 2 -5 3 11 21 10 11 1 -0 -0 7 6 4 4 14 10 12 11 13 15 7 13 8 5 13 5 17 27
4 10 8 15 76 13 17 32 19 -1 5 13 17 57 -1 -34 -7 5 18 -7 -3 1 8 18 17 7 7 6 6 4 2 6 11 15 9 9 16 9 13 17 6 10 12 10 28 14 10
2 8 12 15 69 12 23 31 26 2 -1 28 25 37 5 17 -1 9 2 7 5 2 1 23 17 11 9 4 10 3 5 8 14 4 11 19 16 9 11 21 29 38 15 10 21 18 21
0 8 14 16 63 22 53 19 27 14 -1 31 19 25 12 4 8 2 3 -1 1 1 12 18 17 15 13 9 8 7 4 23 7 6 12 15 13 17 11 20 12 24 4 18 13 6 22
1 7 14 13 60 36 38 14 0 3 6 24 -5 20 2 18 20 9 6 16 15 18 17 17 17 13 10 9 6 8 11 12 2 16 8 5 6 7 23 14 19 23 28 15 19 26 18
-2 6 11 8 60 44 -10 -1 -5 4 19 16 2 -1 19 -15 7 9 6 16 17 16 12 9 11 10 13 8 8 6 19 12 13 7 8 4 7 6 8 3 7 7 12 15 18 22 16
1 6 9 13 59 28 32 -11 -8 5 14 21 18 23 22 -12 3 11 19 18 11 4 8 10 8 12 13 9 9 5 9 6 6 4 2 2 5 8 2 7 6 7 5 6 21 22 11
1 7 6 16 27 51 39 -7 -5 -5 8 -1 17 30 4 18 21 14 2 5 14 19 8 9 11 8 9 13 10 10 9 9 5 4 7 4 5 3 6 5 5 6 10 9 0 29 12
4 5 4 15 7 65 44 0 -8 -11 4 11 24 1 -1 -5 10 -4 8 10 13 -1 7 4 7 10 11 4 14 14 11 8 6 3 7 5 1 3 4 3 9 4 0 4 4 5 4
6 3 3 10 17 3 104 14 4 7 6 4 7 13 9 11 24 -0 11 4 13 4 1 7 5 4 9 16 19 12 5 10 1 3 3 6 3 1 6 7 4 6 4 5 9 6 6
Height
5703 5697 5693 5689 5686 5682 5679 5675 5671 5668 5667 5665 5664 5662 5662 5662 5662 5663 5666 5669 5672 5675 5677 5682 5685 5688 5694 5699 5702 5707 5711 5717 5723 5728 5733 5736 5740 5744 5747 5749 5752 5754 5757 5759 5760 5762 5764
5696 5691 5688 5683 5678 5674 5669 5665 5661 5659 5654 5652 5651 5650 5650 5652 5653 5653 5655 5658 5662 5666 5668 5672 5677 5680 5685 5691 5693 5698 5703 5708 5714 5720 5726 5729 5732 5736 5739 5742 5746 5748 5750 5752 5754 5757 5758
5691 5686 5679 5674 5667 5662 5656 5652 5648 5645 5642 5639 5638 5636 5637 5640 5641 5642 5644 5648 5652 5656 5660 5664 5669 5673 5677 5682 5687 5690 5695 5700 5706 5712 5718 5722 5725 5729 5732 5734 5739 5740 5743 5745 5747 5749 5751
5686 5679 5672 5664 5656 5649 5642 5637 5632 5628 5625 5622 5622 5622 5621 5625 5628 5630 5634 5637 5641 5647 5651 5657 5663 5667 5670 5675 5681 5683 5687 5693 5698 5705 5710 5715 5718 5721 5724 5727 5730 5732 5735 5738 5740 5741 5743
5678 5670 5662 5653 5643 5637 5628 5621 5615 5607 5601 5599 5598 5598 5601 5607 5611 5617 5621 5626 5632 5638 5643 5649 5656 5660 5665 5669 5675 5677 5680 5685 5691 5698 5703 5707 5711 5715 5717 5719 5723 5725 5728 5730 5731 5733 5735
5670 5662 5652 5641 5632 5622 5610 5601 5593 5583 5576 5566 5561 5565 5573 5583 5592 5601 5608 5615 5620 5628 5635 5642 5649 5655 5660 5664 5668 5672 5675 5680 5684 5690 5696 5700 5705 5709 5710 5712 5715 5717 5720 5722 5723 5725 5726
5661 5651 5641 5631 5620 5610 5599 5584 5570 5556 5544 5537 5532 5535 5542 5554 5569 5585 5598 5600 5609 5620 5628 5636 5642 5646 5651 5657 5661 5666 5670 5674 5678 5684 5689 5693 5699 5702 5703 5706 5708 5710 5712 5713 5714 5715 5717
5651 5640 5628 5616 5605 5592 5578 5560 5542 5524 5514 5509 5509 5511 5520 5531 5546 5565 5578 5586 5603 5611 5617 5624 5632 5639 5645 5650 5656 5661 5666 5671 5675 5679 5684 5689 5693 5695 5697 5699 5701 5703 5704 5705 5706 5706 5706
5641 5628 5615 5601 5588 5572 5553 5531 5513 5501 5493 5488 5488 5492 5502 5512 5527 5549 5565 5578 5591 5600 5607 5616 5623 5630 5638 5645 5651 5656 5662 5666 5671 5675 5679 5682 5687 5689 5691 5692 5694 5695 5696 5696 5696 5695 5696
5632 5617 5602 5586 5570 5550 5528 5507 5495 5486 5481 5478 5478 5480 5488 5497 5515 5536 5553 5571 5584 5591 5598 5608 5616 5624 5632 5639 5645 5651 5656 5663 5667 5671 5674 5678 5680 5682 5684 5685 5686 5687 5686 5685 5684 5683 5682
5622 5607 5590 5573 5553 5531 5508 5494 5485 5480 5477 5475 5476 5475 5479 5488 5504 5526 5549 5565 5575 5581 5588 5600 5607 5617 5626 5633 5642 5647 5652 5658 5662 5666 5671 5673 5674 5675 5676 5676 5676 5677 5676 5674 5670 5668 5666
5614 5598 5580 5561 5538 5515 5496 5487 5479 5476 5475 5473 5472 5471 5474 5483 5499 5521 5541 5554 5566 5574 5582 5592 5602 5611 5620 5628 5636 5641 5647 5653 5657 5661 5664 5666 5667 5668 5668 5667 5667 5665 5663 5660 5657 5654 5651
5607 5589 5571 5549 5525 5504 5489 5480 5475 5474 5473 5473 5471 5469 5471 5479 5495 5514 5530 5545 5557 5566 5579 5589 5599 5608 5616 5624 5630 5636 5642 5647 5651 5655 5658 5659 5660 5660 5660 5659 5657 5655 5653 5647 5643 5638 5638
5600 5581 5561 5539 5517 5497 5484 5475 5471 5473 5472 5470 5467 5466 5469 5478 5491 5507 5522 5540 5552 5563 5576 5585 5595 5602 5611 5618 5625 5631 5637 5642 5646 5649 5651 5652 5653 5652 5652 5650 5648 5645 5642 5638 5629 5624 5622
5595 5575 5555 5532 5511 5494 5480 5471 5468 5471 5471 5469 5467 5465 5467 5478 5490 5506 5525 5539 5549 5563 5576 5584 5592 5600 5607 5614 5622 5628 5633 5637 5640 5642 5644 5644 5646 5645 5644 5643 5639 5635 5630 5624 5615 5615 5602
5591 5571 5551 5528 5506 5493 5479 5471 5468 5471 5470 5469 5467 5466 5470 5479 5496 5513 5528 5538 5550 5564 5573 5579 5588 5597 5604 5610 5617 5623 5627 5631 5633 5636 5636 5638 5636 5638 5635 5632 5630 5623 5620 5614 5605 5597 5590
5588 5569 5549 5527 5506 5495 5480 5474 5472 5472 5470 5470 5469 5470 5474 5486 5500 5513 5525 5539 5551 5561 5570 5578 5585 5593 5601 5607 5612 5617 5622 5626 5628 5629 5630 5630 5629 5629 5628 5624 5618 5615 5610 5603 5595 5587 5578
5587 5568 5548 5528 5508 5498 5488 5482 5478 5476 5475 5474 5472 5475 5481 5490 5504 5518 5530 5542 5553 5563 5570 5576 5583 5589 5596 5604 5609 5612 5617 5619 5622 5624 5624 5622 5622 5622 5621 5615 5610 5604 5600 5593 5583 5577 5567
5587 5569 5549 5531 5512 5504 5497 5490 5485 5481 5480 5479 5478 5481 5488 5498 5509 5521 5533 5545 5556 5563 5569 5574 5580 5588 5594 5599 5604 5609 5612 5616 5618 5617 5618 5617 5617 5614 5613 5609 5602 5597 5594 5585 5575 5567 5561
5587 5569 5550 5533 5516 5510 5504 5498 5494 5489 5488 5488 5488 5491 5497 5509 5519 5530 5540 5548 5556 5562 5567 5572 5578 5585 5591 5596 5601 5606 5610 5612 5613 5612 5614 5613 5611 5608 5605 5601 5594 5589 5587 5579 5571 5562 5555
5587 5571 5553 5536 5520 5513 5509 5505 5501 5499 5497 5499 5500 5503 5513 5521 5529 5536 5544 5552 5558 5562 5566 5571 5577 5583 5588 5594 5598 5604 5606 5608 5609 5610 5609 5608 5607 5604 5600 5597 5591 5584 5580 5573 5566 5560 5552
5588 5573 5556 5538 5523 5518 5513 5508 5509 5509 5508 5507 5508 5514 5522 5529 5535 5542 5548 5553 5558 5562 5566 5570 5574 5579 5585 5590 5597 5600 5602 5604 5605 5605 5605 5605 5604 5601 5597 5592 5586 5579 5575 5571 5564 5558 5552
5589 5574 5559 5542 5527 5523 5518 5515 5516 5518 5518 5517 5520 5524 5529 5533 5539 5545 5551 5556 5559 5563 5567 5570 5574 5579 5584 5588 5594 5597 5600 5602 5602 5603 5602 5601 5600 5598 5595 5590 5583 5578 5574 5570 5564 5559 5553
5590 5576 5562 5547 5532 5529 5525 5523 5525 5526 5524 5527 5529 5532 5535 5539 5543 5548 5553 5557 5559 5562 5566 5570 5574 5578 5582 5587 5591 5595 5598 5598 5599 5599 5600 5600 5598 5596 5593 5588 5582 5578 5574 5570 5564 5559 5557
5591 5579 5565 5552 5539 5535 5534 5532 5533 5532 5532 5532 5533 5537 5540 5544 5548 5551 5554 5557 5560 5563 5566 5570 5573 5578 5581 5585 5590 5593 5595 5596 5597 5597 5597 5598 5596 5595 5592 5587 5587 5582 5577 5572 5568 5565 5562
5591 5581 5569 5558 5546 5540 5541 5538 5538 5538 5538 5538 5537 5540 5544 5547 5549 5551 5554 5558 5560 5563 5567 5570 5574 5577 5580 5583 5587 5590 5592 5593 5595 5595 5595 5594 5594 5594 5592 5591 5589 5586 5581 5577 5573 5571 5568
5589 5580 5570 5561 5553 5544 5544 5544 5543 5543 5542 5542 5541 5544 5547 5550 5551 5554 5557 5559 5561 5564 5567 5570 5573 5577 5578 5581 5584 5587 5588 5590 5593 5592 5592 5592 5592 5594 5594 5592 5591 5589 5586 5583 5582 5580 5576
5586 5578 5568 5562 5555 5549 5546 5546 5545 5545 5546 5547 5546 5547 5549 5551 5553 5555 5557 5560 5562 5564 5567 5570 5573 5575 5577 5578 5581 5582 5584 5586 5589 5590 5590 5590 5592 5593 5593 5593 5593 5591 5589 5588 5586 5584 5582
5583 5575 5566 5559 5554 5548 5544 5542 5542 5543 5543 5545 5546 5547 5548 5551 5552 5554 5557 5559 5561 5564 5566 5568 5570 5572 5574 5576 5577 5580 5581 5582 5584 5586 5587 5588 5590 5591 5594 5593 5592 5591 5590 5590 5588 5587 5586